GW2301 Weather Reports


time (UTC)temp
C
wind
direction
speed
KPH
gust
KPH
rain 1hr
cm
rain 24hr
cm
rain mn
cm
humidity
%
barometer
mb
20260504190209 22 185 6.4 14.5 0.00 0.00 0.00 55 1010.7
20260504185523 21 248 4.8 12.9 0.00 0.00 0.00 61 1010.8
20260504185038 20 178 3.2 12.9 0.00 0.00 0.00 64 1010.9
20260504184700 19 268 1.6 14.5 0.00 0.00 0.00 75 1011.0
20260504184029 17 135 4.8 14.5 0.00 0.00 0.00 70 1011.0
20260504183533 18 236 8.0 12.9 0.00 0.00 0.00 68 1011.4
20260504183138 18 240 3.2 12.9 0.00 0.00 0.00 63 1011.6
20260504182533 20 161 4.8 12.9 0.00 0.00 0.00 59 1012.2
20260504182045 20 235 3.2 16.1 0.00 0.00 0.00 54 1012.6
20260504181648 20 217 6.4 11.3 0.00 0.00 0.00 53 1012.2
20260504181029 21 261 4.8 16.1 0.00 0.00 0.00 52 1011.7
20260504180525 21 106 6.4 16.1 0.00 0.00 0.00 49 1011.5
20260504180204 22 261 6.4 24.1 0.00 0.00 0.00 48 1011.4
20260504175546 22 225 9.7 24.1 0.00 0.00 0.00 46 1011.3
20260504175039 23 209 11.3 20.9 0.00 0.00 0.00 45 1011.3
20260504174650 23 302 6.4 17.7 0.00 0.00 0.00 46 1011.0
20260504174043 23 225 4.8 22.5 0.00 0.00 0.00 46 1011.2
20260504173521 22 164 4.8 25.7 0.00 0.00 0.00 47 1010.8
20260504173142 23 219 8.0 25.7 0.00 0.00 0.00 48 1011.4
20260504172534 22 174 4.8 19.3 0.00 0.00 0.00 49 1011.2
20260504172047 22 275 6.4 16.1 0.00 0.00 0.00 48 1011.0
20260504171648 21 193 4.8 16.1 0.00 0.00 0.00 53 1011.0
20260504171021 21 228 6.4 16.1 0.00 0.00 0.00 52 1011.2
20260504170542 20 261 6.4 14.5 0.00 0.00 0.00 54 1011.3
20260504170156 20 237 6.4 14.5 0.00 0.00 0.00 52 1011.4
20260504160135 20 180 4.8 14.5 0.00 0.00 0.00 57 1012.0
20260504151022 17 184 6.4 19.3 0.00 0.00 0.00 64 1012.6
20260504150526 17 194 8.0 19.3 0.00 0.00 0.00 64 1013.0
20260504150154 17 306 4.8 14.5 0.00 0.00 0.00 66 1013.3
20260504141045 14 171 3.2 12.9 0.00 0.00 0.00 75 1013.6
20260504140538 13 128 4.8 16.1 0.00 0.00 0.00 77 1013.8
20260504140200 13 201 3.2 9.7 0.00 0.00 0.00 79 1013.8
20260504130535 13 210 4.8 17.7 0.00 0.00 0.00 66 1013.9
20260504130147 13 171 8.0 16.1 0.00 0.00 0.00 65 1013.5
20260504120128 12 332 4.8 11.3 0.00 0.00 0.00 61 1013.4
20260504110527 9 239 0.0 4.8 0.00 0.00 0.00 72 1013.0
20260504110225 9 226 1.6 6.4 0.00 0.00 0.00 74 1013.1
20260504100547 7 195 0.0 3.2 0.00 0.00 0.00 79 1013.2
20260504100130 7 195 0.0 3.2 0.00 0.00 0.00 81 1012.9
20260504090130 6 279 0.0 1.6 0.00 0.00 0.00 87 1013.6
20260504081639 6 279 0.0 1.6 0.00 0.00 0.00 85 1013.7
20260504081028 6 279 0.0 0.0 0.00 0.00 0.00 85 1013.7
20260504080517 6 279 0.0 1.6 0.00 0.00 0.00 84 1013.5
20260504080132 6 279 0.0 1.6 0.00 0.00 0.00 83 1013.5
20260504070220 7 205 0.0 3.2 0.00 0.00 0.00 82 1014.3
20260504060147 9 119 0.0 3.2 0.00 0.00 0.00 78 1014.8
20260504050525 10 259 4.8 9.7 0.00 0.00 0.00 74 1014.8
20260504050159 9 232 4.8 8.0 0.00 0.00 0.00 78 1014.9
20260504045527 9 163 3.2 8.0 0.00 0.00 0.00 79 1015.0
20260504045031 9 229 3.2 6.4 0.00 0.00 0.00 79 1015.2
20260504044617 9 200 1.6 4.8 0.00 0.00 0.00 79 1015.2
20260504044036 9 223 1.6 6.4 0.00 0.00 0.00 79 1015.3
20260504043526 9 197 3.2 6.4 0.00 0.00 0.00 79 1015.3
20260504043131 9 195 1.6 4.8 0.00 0.00 0.00 79 1015.3
20260504042542 9 179 1.6 4.8 0.00 0.00 0.00 79 1015.3
20260504042021 9 204 0.0 3.2 0.00 0.00 0.00 79 1015.6
20260504041631 9 259 1.6 3.2 0.00 0.00 0.00 80 1015.6
20260504041024 9 180 0.0 1.6 0.00 0.00 0.00 80 1015.6
20260504040545 10 180 0.0 1.6 0.00 0.00 0.00 80 1015.6
20260504040139 10 180 0.0 0.0 0.00 0.00 0.00 80 1015.6
20260504035537 10 180 0.0 0.0 0.00 0.00 0.00 79 1015.6
20260504035021 10 180 0.0 0.0 0.00 0.00 0.00 79 1015.7
20260504034640 10 180 0.0 0.0 0.00 0.00 0.00 78 1015.7
20260504034035 10 180 0.0 1.6 0.00 0.00 0.00 79 1015.6
20260504033526 10 180 0.0 1.6 0.00 0.00 0.00 77 1015.4
20260504033121 10 200 0.0 1.6 0.00 0.00 0.00 76 1015.5
20260504032519 10 200 0.0 1.6 0.00 0.00 0.00 76 1015.5
20260504032035 10 200 0.0 3.2 0.00 0.00 0.00 76 1015.4
20260504031625 10 218 0.0 6.4 0.00 0.00 0.00 73 1015.5
20260504031046 10 202 1.6 6.4 0.00 0.00 0.00 72 1015.4
20260504030540 10 76 0.0 1.6 0.00 0.00 0.00 73 1015.5
20260504030143 10 76 0.0 3.2 0.00 0.00 0.00 72 1015.7
20260504025542 10 76 0.0 3.2 0.00 0.00 0.00 71 1015.6
20260504025025 11 124 0.0 1.6 0.00 0.00 0.00 71 1015.7
20260504024625 11 143 0.0 3.2 0.00 0.00 0.00 69 1015.8
20260504024031 10 156 0.0 3.2 0.00 0.00 0.00 68 1015.7
20260504023547 10 156 0.0 3.2 0.00 0.00 0.00 68 1015.6
20260504023139 11 152 0.0 0.0 0.00 0.00 0.00 69 1015.7
20260504022532 11 152 0.0 0.0 0.00 0.00 0.00 69 1015.4
20260504022024 11 152 0.0 1.6 0.00 0.00 0.00 69 1015.5
20260504021610 11 152 0.0 3.2 0.00 0.00 0.00 67 1015.2
20260504021033 11 167 0.0 4.8 0.00 0.00 0.00 66 1015.2
20260504020520 11 166 0.0 3.2 0.00 0.00 0.00 66 1015.2
20260504020141 11 182 0.0 3.2 0.00 0.00 0.00 64 1015.2
20260504015533 11 222 0.0 3.2 0.00 0.00 0.00 66 1015.2
20260504015028 11 247 0.0 3.2 0.00 0.00 0.00 63 1015.1
20260504014634 11 234 0.0 3.2 0.00 0.00 0.00 63 1014.7
20260504014032 11 217 1.6 3.2 0.00 0.00 0.00 64 1014.9
20260504013548 11 186 0.0 4.8 0.00 0.00 0.00 64 1014.7
20260504013142 11 211 1.6 3.2 0.00 0.00 0.00 64 1014.6
20260504012533 11 131 0.0 1.6 0.00 0.00 0.00 64 1014.6
20260504012025 11 131 0.0 1.6 0.00 0.00 0.00 65 1015.1
20260504011622 11 131 0.0 1.6 0.00 0.00 0.00 64 1014.9
20260504011044 11 131 0.0 4.8 0.00 0.00 0.00 64 1014.9
20260504010523 11 148 0.0 4.8 0.00 0.00 0.00 62 1014.7
20260504010151 11 172 3.2 4.8 0.00 0.00 0.00 62 1015.1
20260504005529 11 178 3.2 4.8 0.00 0.00 0.00 63 1015.0
20260504005043 11 159 0.0 3.2 0.00 0.00 0.00 62 1015.1
20260504004637 11 98 0.0 1.6 0.00 0.00 0.00 62 1015.2
20260504004023 12 76 0.0 1.6 0.00 0.00 0.00 62 1015.2
20260504003547 12 76 0.0 1.6 0.00 0.00 0.00 62 1015.0
20260504003142 12 76 0.0 1.6 0.00 0.00 0.00 60 1015.2
20260504002541 12 76 0.0 1.6 0.00 0.00 0.00 61 1015.0
20260504002021 12 76 0.0 0.0 0.00 0.00 0.00 58 1015.0
20260504001653 13 76 0.0 1.6 0.00 0.00 0.00 56 1015.1
20260504001040 13 76 0.0 1.6 0.00 0.00 0.00 57 1015.1
20260504000541 13 76 0.0 1.6 0.00 0.00 0.00 54 1015.1
20260504000211 13 76 0.0 1.6 0.00 0.00 0.00 55 1015.1
20260503235522 13 76 0.0 1.6 0.00 0.00 0.00 53 1015.0
20260503235024 14 117 0.0 1.6 0.00 0.00 0.00 53 1015.1
20260503234640 14 134 0.0 1.6 0.00 0.00 0.00 53 1014.8
20260503234042 15 173 0.0 3.2 0.00 0.00 0.00 48 1014.9
20260503233535 16 181 0.0 3.2 0.00 0.00 0.00 43 1015.0
20260503233122 16 227 1.6 4.8 0.00 0.00 0.00 35 1015.0
20260503232532 16 180 1.6 6.4 0.00 0.00 0.00 35 1014.9
20260503232025 16 210 3.2 8.0 0.00 0.00 0.00 32 1015.2
20260503231710 16 179 1.6 8.0 0.00 0.00 0.00 35 1015.2
20260503231045 16 178 3.2 6.4 0.00 0.00 0.00 34 1015.3
20260503230530 16 213 0.0 4.8 0.00 0.00 0.00 34 1015.2
20260503230219 16 214 1.6 6.4 0.00 0.00 0.00 34 1015.3
20260503225534 16 210 1.6 6.4 0.00 0.00 0.00 32 1015.3
20260503225023 16 248 1.6 12.9 0.00 0.00 0.00 32 1015.4
20260503224643 16 262 1.6 12.9 0.00 0.00 0.00 31 1015.7
20260503224036 17 215 4.8 9.7 0.00 0.00 0.00 30 1015.3
20260503223540 17 246 3.2 11.3 0.00 0.00 0.00 31 1015.4
20260503223135 17 242 3.2 14.5 0.00 0.00 0.00 31 1015.7
20260503222542 17 178 6.4 14.5 0.00 0.00 0.00 30 1015.7
20260503222039 17 226 4.8 11.3 0.00 0.00 0.00 31 1015.8
20260503221653 17 258 3.2 12.9 0.00 0.00 0.00 31 1015.6
20260503221023 17 246 3.2 11.3 0.00 0.00 0.00 30 1015.7
20260503220524 17 201 0.0 8.0 0.00 0.00 0.00 31 1015.6
20260503220129 17 191 3.2 16.1 0.00 0.00 0.00 30 1015.7
20260503215535 17 173 6.4 17.7 0.00 0.00 0.00 29 1015.9
20260503215021 17 182 0.0 14.5 0.00 0.00 0.00 29 1015.7
20260503214655 18 275 4.8 17.7 0.00 0.00 0.00 29 1015.8
20260503214040 18 198 3.2 17.7 0.00 0.00 0.00 28 1015.8
20260503213529 18 191 4.8 12.9 0.00 0.00 0.00 28 1015.7
20260503213210 18 180 6.4 12.9 0.00 0.00 0.00 28 1015.7
20260503212543 18 231 4.8 12.9 0.00 0.00 0.00 29 1015.9
20260503212033 17 188 3.2 17.7 0.00 0.00 0.00 28 1016.1
20260503211707 18 242 3.2 12.9 0.00 0.00 0.00 29 1015.9
20260503211037 18 150 4.8 14.5 0.00 0.00 0.00 29 1016.0
20260503210524 17 249 1.6 12.9 0.00 0.00 0.00 29 1015.9
20260503210153 18 258 6.4 16.1 0.00 0.00 0.00 30 1016.0
20260503205536 17 177 4.8 16.1 0.00 0.00 0.00 29 1016.1
20260503205031 18 180 4.8 14.5 0.00 0.00 0.00 28 1016.2
20260503204703 18 202 6.4 12.9 0.00 0.00 0.00 27 1016.2
20260503204035 18 249 3.2 17.7 0.00 0.00 0.00 29 1016.2
20260503203525 17 295 4.8 17.7 0.00 0.00 0.00 32 1016.3
20260503203211 18 263 4.8 11.3 0.00 0.00 0.00 28 1016.2
20260503202540 18 211 1.6 11.3 0.00 0.00 0.00 29 1016.3
20260503202039 18 237 6.4 22.5 0.00 0.00 0.00 29 1016.6
20260503201646 18 198 9.7 22.5 0.00 0.00 0.00 28 1016.5
20260503201038 18 191 4.8 12.9 0.00 0.00 0.00 26 1016.7
20260503200521 18 265 3.2 14.5 0.00 0.00 0.00 29 1016.7
20260503200218 17 138 4.8 9.7 0.00 0.00 0.00 29 1017.0
20260503195532 16 82 1.6 14.5 0.00 0.00 0.00 29 1016.8
20260503195030 17 211 6.4 22.5 0.00 0.00 0.00 28 1017.1
20260503194657 17 238 8.0 22.5 0.00 0.00 0.00 29 1017.2
20260503194043 18 277 3.2 16.1 0.00 0.00 0.00 29 1017.0
20260503193540 18 329 4.8 14.5 0.00 0.00 0.00 28 1017.4
20260503193156 18 211 6.4 12.9 0.00 0.00 0.00 28 1017.2
20260503192521 18 63 4.8 12.9 0.00 0.00 0.00 28 1017.3
20260503192027 18 167 4.8 9.7 0.00 0.00 0.00 27 1017.5
20260503191631 17 142 3.2 14.5 0.00 0.00 0.00 29 1017.6
20260503191024 18 255 1.6 14.5 0.00 0.00 0.00 28 1017.7
20260503190531 17 159 1.6 17.7 0.00 0.00 0.00 29 1017.8